Fort Simpson, Northwest Territories

12:57 PM MDT on May 25, 2018 (GMT -0600)
Fort Simpson

Weather History for CZFS - December, 2012

Change the Weather History Date:

Saturday, December 29, 2012

  Actual Average (WUND) Record (WUND)
Temperature  
Mean Temperature -12 °F -  
Max Temperature -5 °F - - (-1)
Min Temperature -20 °F - - (-1)
Degree Days  
Heating Degree Days 78    
Moisture  
Dew Point -17 °F    
Average Humidity 76    
Maximum Humidity 82    
Minimum Humidity 64    
Precipitation  
Precipitation 0.00 in - - ()
Sea Level Pressure  
Sea Level Pressure 30.10 in    
Wind  
Wind Speed 6 mph ()    
Max Wind Speed 14 mph    
Max Gust Speed -    
Averages and records for this station are not official NWS values.
T = Trace of Precipitation, MM = Missing Value Source: Averaged Metar Reports

Daily Weather History Graph

Daily Weather History Graph

Search for Another Location

Airport or City:

Astronomy

Dec. 29, 2012 Rise Set
Actual Time 10:26 AM MST 3:48 PM MST
Civil Twilight 9:22 AM MST 4:52 PM MST
Nautical Twilight 8:21 AM MST 5:53 PM MST
Astronomical Twilight 7:27 AM MST 6:47 PM MST
Moon 6:07 PM MST (12/29) 10:25 AM MST (12/29)
Length of Visible Light 7h 29m
Length of Day
5h 21m
Full, 98% of the Moon is Illuminated
Dec 29
Full
Jan 4
Last Quarter
Jan 11
New
Jan 18
First Quarter
Jan 26
Full

Hourly Weather History & Observations

Time (MST) Temp. Windchill Dew Point Humidity Pressure Visibility Wind Dir Wind Speed Gust Speed Precip Events Conditions
12:00 AM -7.8 °F -23.6 °F -12.6 °F 79% 30.01 in - NW 8.1 mph - N/A   Unknown
1:00 AM -6.9 °F -24.8 °F -12.1 °F 78% 30.03 in - NW 10.4 mph - N/A   Unknown
2:00 AM -5.6 °F -24.1 °F -11.0 °F 77% 30.05 in - NW 11.5 mph - N/A   Unknown
3:00 AM -5.1 °F -25.1 °F -10.8 °F 76% 30.08 in - NW 13.8 mph - N/A   Unknown
4:00 AM -4.9 °F -23.2 °F -10.1 °F 78% 30.10 in - NW 11.5 mph - N/A   Unknown
5:00 AM -6 °F - -12 °F 64% 30.12 in - NNW 9.2 mph - -  
5:00 AM -5.6 °F -22.2 °F -11.7 °F 75% 30.12 in - NNW 9.2 mph - N/A   Unknown
6:00 AM -6.5 °F -20.8 °F -12.3 °F 76% 30.13 in - NNW 6.9 mph - N/A   Unknown
7:00 AM -10.7 °F -24.2 °F -16.1 °F 77% 30.15 in - NW 5.8 mph - N/A   Unknown
8:00 AM -11.7 °F -21.3 °F -15.9 °F 82% 30.15 in - NNW 3.5 mph - N/A   Unknown
9:00 AM -16.1 °F - -20.9 °F 79% 30.16 in - NNW 2.3 mph - N/A   Unknown
10:00 AM -16.8 °F - -21.1 °F 81% 30.19 in - WNW 2.3 mph - N/A   Unknown
11:00 AM -19 °F - -24 °F 68% 30.18 in - NW 2.3 mph - -  
11:00 AM -18.8 °F - -23.6 °F 78% 30.18 in - NW 2.3 mph - N/A   Unknown
12:00 PM -18.0 °F - -23.8 °F 75% 30.16 in - Calm Calm - N/A   Unknown
1:00 PM -15.9 °F - -21.8 °F 74% 30.15 in - SSW 1.2 mph - N/A   Unknown
2:00 PM -11.6 °F - -18.8 °F 70% 30.13 in - SSE 1.2 mph - N/A   Unknown
3:00 PM -13.9 °F - -20.7 °F 71% 30.12 in - SE 1.2 mph - N/A   Unknown
4:00 PM -16.8 °F - -22.0 °F 77% 30.13 in - Calm Calm - N/A   Unknown
5:00 PM -13 °F - -18 °F 67% 30.09 in - SE 5.8 mph - -  
5:00 PM -13.0 °F -27.0 °F -18.0 °F 78% 30.09 in - SE 5.8 mph - N/A   Unknown
6:00 PM -13.7 °F -23.5 °F -18.8 °F 78% 30.08 in - ESE 3.5 mph - N/A   Unknown
7:00 PM -13.4 °F -29.0 °F -18.0 °F 80% 30.05 in - ESE 6.9 mph - N/A   Unknown
8:00 PM -13.2 °F -25.3 °F -18.4 °F 77% 30.05 in - SE 4.6 mph - N/A   Unknown
9:00 PM -11.6 °F -25.3 °F -16.2 °F 80% 29.99 in - ESE 5.8 mph - N/A   Unknown
10:00 PM -11.6 °F -25.3 °F -16.4 °F 79% 29.99 in - ESE 5.8 mph - N/A   Unknown
11:00 PM -12 °F - -17 °F 67% 30.00 in - SE 6.9 mph - -  
11:00 PM -12.1 °F -27.5 °F -17.0 °F 79% 30.00 in - SE 6.9 mph - N/A   Unknown